Date,TemperatureHighF,TemperatureAvgF,TemperatureLowF,DewpointHighF,DewpointAvgF,DewpointLowF,HumidityHigh,HumidityAvg,HumidityLow,PressureMaxIn,PressureMinIn,WindSpeedMaxMPH,WindSpeedAvgMPH,GustSpeedMaxMPH,PrecipitationSumIn
2013-7-4,90.0,87.3,85.0,76.0,75.2,72.0,74,68,56,29.91,29.88,1,0,6,0.02
2013-7-5,90.0,90.0,90.0,73.0,73.0,73.0,57,57,57,29.85,29.85,0,0,0,0.00
2013-7-6,88.0,85.7,84.0,71.0,69.9,69.0,61,60,58,29.83,29.80,0,0,7,0.00
2013-7-7,84.0,79.0,74.0,70.0,68.5,67.0,88,72,57,29.78,29.76,0,0,1,0.00
2013-7-11,79.0,71.8,65.0,68.0,64.9,61.0,87,79,68,29.80,29.67,0,0,3,0.00
2013-7-14,72.0,70.5,69.0,68.0,67.5,67.0,94,90,87,30.04,30.04,0,0,0,0.00
2013-7-15,91.0,81.3,69.0,70.0,67.4,65.0,88,65,45,29.96,29.90,0,0,9,0.00
2013-7-16,88.0,72.1,68.0,72.0,67.4,65.0,99,86,59,30.00,29.94,1,0,4,0.00
2013-7-17,79.0,67.7,65.0,72.0,66.0,63.0,99,94,78,30.00,29.78,255,0,255,0.34
2013-7-18,82.0,80.2,71.0,74.0,73.3,70.0,96,80,77,29.80,29.78,2,2,6,0.35
2013-7-19,88.0,77.4,68.0,75.0,71.0,67.0,97,82,59,29.78,29.47,255,1,255,0.03
2013-7-20,81.0,71.3,67.0,69.0,67.7,66.0,95,88,67,29.52,29.47,0,0,0,0.18
2013-7-21,76.0,64.7,58.0,61.0,57.8,55.0,94,80,60,29.84,29.65,2,0,6,0.01
2013-7-22,63.0,59.7,58.0,61.0,58.3,57.0,95,95,94,29.88,29.80,0,0,0,0.01
2013-7-23,68.0,62.0,59.0,67.0,60.9,58.0,98,96,93,29.80,29.41,2,0,3,2.24
2013-7-24,78.0,67.8,58.0,71.0,62.2,49.0,97,84,60,29.84,29.42,8,0,12,0.06
2013-7-25,72.0,62.4,52.0,55.0,51.5,48.0,87,69,55,29.98,29.84,0,0,3,0.00
2013-7-26,71.0,66.7,60.0,63.0,61.7,58.0,94,84,74,29.91,29.78,0,0,5,0.04
2013-7-27,85.0,70.3,59.0,65.0,61.1,57.0,96,75,45,29.85,29.79,6,1,8,1.56
2013-7-28,75.0,65.0,56.0,66.0,61.6,55.0,97,89,69,29.88,29.85,5,1,8,0.01
2013-7-29,78.0,65.4,62.0,68.0,63.5,61.0,97,94,71,29.90,29.82,3,0,8,0.64
2013-7-30,79.0,66.7,56.0,61.0,56.6,52.0,98,75,42,29.93,29.87,6,0,13,0.31
2013-7-31,81.0,61.3,52.0,61.0,55.1,51.0,98,84,48,29.99,29.89,1,0,6,3.24